Regional Weather Roundup
Issued by NWS

Home | Current Version | Previous Version | Graphics & Text | Print | Product List | Glossary On
Versions: 1 2 3 4 5 6 7 8 9 10 11 12 13 14 15 16 17 18 19 20 21 22 23 24 25 26 27 28
000
ASUS45 KPSR 230210
RWRAZ

ARIZONA HOURLY REGIONAL WEATHER ROUNDUP
NATIONAL WEATHER SERVICE PHOENIX AZ
700 PM MST FRI JUL 22 2016

NOTE: FAIR INDICATES FEW OR NO CLOUDS BELOW 12,000 FEET WITH NO
SIGNIFICANT WEATHER AND/OR OBSTRUCTIONS TO VISIBILITY.

AZZ001>003-036-230300-
NORTHWEST ARIZONA

CITY           SKY/WX    TMP DP  RH WIND       PRES   REMARKS
BULLHEAD CITY  PTCLDY   115  37   7 S14       29.71S HX 107
KINGMAN        PTCLDY    98  35  11 SW12      30.00R
$$

AZZ004>008-015-016-018-230300-
NORTH CENTRAL ARIZONA

CITY           SKY/WX    TMP DP  RH WIND       PRES   REMARKS
GRAND CANYON   CLOUDY    71  53  52 VRB3      30.31R
WILLIAMS       CLOUDY    72  50  46 E7G16     30.43S
PRESCOTT       TSTM      72  59  63 S15       30.23S
FLAGSTAFF      CLOUDY    70  50  49 VRB7      30.37R
PAYSON         CLOUDY    79  52  38 NW6       30.22S
PAGE           CLOUDY    97  41  14 SE7       30.04R
$$

AZZ009>014-017-230300-
NORTHEAST ARIZONA

CITY           SKY/WX    TMP DP  RH WIND       PRES   REMARKS
WINSLOW        CLOUDY    82  51  34 SE13      30.20R
SAINT JOHNS    CLOUDY    79  48  33 NW12      30.26R
WINDOW ROCK    CLOUDY    74  54  49 S7        30.33R
SHOW LOW       CLOUDY    68  54  60 SW3       30.32R
$$

AZZ023-230300-
GREATER PHOENIX AREA

CITY           SKY/WX    TMP DP  RH WIND       PRES   REMARKS
PHOENIX        MOCLDY   106  53  17 N23G36    29.79R HX 104
BUCKEYE        PTCLDY   108  55  18 SE5       29.78S HX 106
GLENDALE       MOCLDY   102  55  21 N16G25    29.82R HX 101
LUKE AFB       MOCLDY   103  58  22 NE16G25   29.79R HX 102
DEER VALLEY    CLOUDY   100  55  22 N20G28    29.84R
SCOTTSDALE     CLOUDY   103  50  17 N17G25    29.86R HX 100
MESA-GATEWAY   MOCLDY   108  54  16 N18G30    29.82R HX 106
CHANDLER       CLEAR    109  50  14 NW8       29.80R HX 106
$$

AZZ027-028-230300-
SOUTHWEST MARICOPA COUNTY AND PINAL COUNTY

CITY           SKY/WX    TMP DP  RH WIND       PRES   REMARKS
CASA GRANDE    CLEAR    108  54  16 CALM      29.84S HX 106
GILA BEND      FAIR     111  47  11 W7        29.75S HX 107
$$

AZZ503-504-507>509-230300-
SOUTHEAST ARIZONA

CITY           SKY/WX    TMP DP  RH WIND       PRES   REMARKS
TUCSON         PTCLDY   104  48  15 NW7       29.93S HX 100
DAVIS-MONTHAN  CLEAR    103  48  15 NW6       29.92R HX 100
RYAN FIELD     CLEAR    104  50  16 NW8       29.91S HX 101
NOGALES        CLOUDY    92  53  26 W8        30.05R
SIERRA VISTA   CLOUDY    88  49  26 NE6       30.14R
DOUGLAS        PTCLDY    83  62  49 N6        30.06R
SAFFORD        MOCLDY    98  50  19 NE20      29.94R
$$

AZZ020-021-025-026-031-230300-
SOUTHWEST ARIZONA

CITY           SKY/WX    TMP DP  RH WIND       PRES   REMARKS
YUMA           MOCLDY   108  58  19 S12       29.72S HX 108
$$

CAZ031-033-041-043-047-048-061-230300-
SOUTHERN CALIFORNIA

CITY           SKY/WX    TMP DP  RH WIND       PRES   REMARKS
DOWNTOWN L.A.  SUNNY     83  57  41 VRB3      29.81S
L.A. AIRPORT   MOSUNNY   78  60  53 W10       29.82S
SAN DIEGO      PTCLDY    80  63  55 NW7       29.84S
BURBANK        SUNNY     93  51  23 SE8       29.83S
ONTARIO        MOSUNNY   98  39  13 SW9       29.84S
RIVERSIDE      MOSUNNY   99  44  15 W12       29.83S
PALM SPRINGS   CLEAR    113  39   8 E7        29.73F HX 106
EL CENTRO NAS  CLEAR    109  57  18 SE13      29.69S HX 109
IMPERIAL       CLEAR    112  61  19 SE14      29.67S HX 114
BLYTHE         CLEAR    113  46  10 S10       29.71S HX 108
NEEDLES        MOCLDY   115  37   7 SW3       29.74S HX 107
$$

NVZ020-UTZ003-230300-
SOUTHERN NEVADA-UTAH

CITY           SKY/WX    TMP DP  RH WIND       PRES   REMARKS
LAS VEGAS      PTCLDY   109  25   5 SW13      29.79S HX 101
SALT LAKE CITY PTCLDY    96  32  10 N12       29.99F
$$

NMZ009-TXZ055-230300-
NEW MEXICO-WEST TEXAS

CITY           SKY/WX    TMP DP  RH WIND       PRES   REMARKS
ALBUQUERQUE    PTCLDY    95  38  13 SW12      30.11S
EL PASO        PTCLDY    98  39  13 SE12      29.99S
$$


........................KEY........................
SKY/WX - SKY CONDITION/WEATHER
TMP    - TEMPERATURE IN FAHRENHEIT
DP     - DEW POINT IN FAHRENHEIT
RH     - RELATIVE HUMIDITY IN PERCENT
WIND   - DIRECTION AND SPEED IN MILES PER HOUR (MPH)
VRB    - VARIABLE WIND DIRECTION
PRES   - MEAN SEA LEVEL PRESSURE IN INCHES OF MERCURY
         F - FALLING PRESSURE   R - RISING PRESSURE
         S - STEADY PRESSURE
VSB    - VISIBILITY IN MILES
HX     - HEAT INDEX IN FAHRENHEIT
WCI    - WIND CHILL INDEX IN FAHRENHEIT
TC     - TEMPERATURE IN CELSIUS WHICH IS ALSO KNOWN AS
         TEMPERATURE IN CENTIGRADE
AFB    - AIR FORCE BASE
         LUKE AFB IS LUKE AIR FORCE BASE
         DAVIS-MONTHAN IS DAVIS-MONTHAN AIR FORCE BASE
NAS    - NAVAL AIR STATION
         EL CENTRO NAS IS EL CENTRO NAVAL AIR STATION
N/A    - NOT AVAILABLE





USA.gov is the U.S. government's official web portal to all federal, state and local government web resources and services.